Regional Weather Roundup
Issued by NWS

Home | Current Version | Previous Version | Graphics & Text | Print | Product List | Glossary Off
Versions: 1 2 3 4 5 6 7 8 9 10 11 12 13 14 15 16 17 18 19 20 21 22 23 24 25 26 27 28 29 30 31 32 33 34 35 36 37 38 39 40 41 42 43 44 45 46 47 48 49 50

000
ASUS43 KFSD 040002
RWRSD

WEATHER ROUNDUP FOR SOUTH DAKOTA
NATIONAL WEATHER SERVICE SIOUX FALLS SD
700 PM CDT SUN MAY 03 2015

NOTE: "FAIR" INDICATES FEW OR NO CLOUDS BELOW 12,000 FEET WITH NO
SIGNIFICANT WEATHER AND/OR OBSTRUCTIONS TO VISIBILITY.


SDZ001>005-009-010-012>017-040100-
NORTHWEST AND NORTH CENTRAL SOUTH DAKOTA

CITY           SKY/WX    TMP DP  RH WIND       PRES   REMARKS
BUFFALO          N/A     60  34  37 SE8       29.97S
FAITH            N/A     61  23  23 NE13      30.02R
MOBRIDGE       PTSUNNY   67  26  21 N9        29.97S
$$

SDZ012>016-024>037-041>051-057-063-072>074-040100-
SOUTHWEST AND SOUTH CENTRAL SOUTH DAKOTA

CITY           SKY/WX    TMP DP  RH WIND       PRES   REMARKS
RAPID CTY ARPT MOSUNNY   64  36  35 NE15      30.02R
PIERRE         SUNNY     70  27  20 NE13      29.96R
CUSTER         CLOUDY    55  34  45 E14       30.06R
ELLSWORTH AFB  MOSUNNY   64  33  31 E12       30.01R
PHILIP         MOSUNNY   69  33  26 NE15      29.97S
PINE RIDGE     SUNNY     67  37  33 NE13      29.98S
WINNER         FAIR      73  33  23 NE20      29.94R
$$

SDZ004>011-016>023-039-040-040100-
NORTHEAST SOUTH DAKOTA

CITY           SKY/WX    TMP DP  RH WIND       PRES   REMARKS
ABERDEEN       MOSUNNY   69  23  17 N16       29.96S
WATERTOWN      MOSUNNY   66  33  29 N17G26    29.93S
BROOKINGS      MOSUNNY   70  36  28 N18G28    29.88R
SISSETON         N/A     67  27  22 N15       29.93F
$$

SDZ017-020-022-023-036>040-048>070-040100-
SOUTHEAST SOUTH DAKOTA

CITY           SKY/WX    TMP DP  RH WIND       PRES   REMARKS
SIOUX FALLS    PTSUNNY   67  40  37 N18G28    29.85R
HURON          SUNNY     70  35  27 NE18G25   29.92R
MITCHELL       MOSUNNY   73  37  27 N23       29.89R
YANKTON        PTSUNNY   73  43  33 N20       29.82R
$$

ABBREVIATIONS USED IN REMARKS
   TC - TEMPERATURE IN CELSIUS
  WCI - WIND CHILL INDEX
   HX - HEAT INDEX
  VSB - VISIBILITY




USA.gov is the U.S. government's official web portal to all federal, state and local government web resources and services.